Regional Weather Roundup
Issued by NWS Jackson, KY

Home | Current Version | Previous Version | Graphics & Text | Print | Product List | Glossary On
Versions: 1 2 3 4 5 6 7 8 9 10 11 12 13 14 15 16 17 18 19 20 21 22 23 24 25 26 27 28 29 30 31 32 33 34 35 36 37 38 39 40 41 42 43 44 45 46 47 48 49 50
000
ASUS43 KJKL 241810
RWRJKL

EAST KENTUCKY HOURLY WEATHER ROUNDUP
NATIONAL WEATHER SERVICE JACKSON KY
100 PM EST FRI NOV 24 2017

NOTE: "FAIR" INDICATES FEW OR NO CLOUDS BELOW 12,000 FEET WITH
NO SIGNIFICANT WEATHER AND/OR OBSTRUCTIONS TO VISIBILITY.

* THESE REPORTS ARE NOT UNDER NWS QUALITY CONTROL AND MAY NOT
  REPORT WEATHER SUCH AS PRECIPITATION AND FOG.

KYZ079-080-083-085-087-088-110-112-115-119-120-241900
...EASTERN KENTUCKY...

CITY           SKY/WX    TMP DP  RH WIND       PRES   REMARKS
JACKSON        SUNNY     56  29  35 CALM      29.94F
6HR MIN TEMP:  33; 6HR MAX TEMP:  56;

LONDON         SUNNY     57  29  34 VRB6      29.95F
6HR MIN TEMP:  26; 6HR MAX TEMP:  57;

SOMERSET*      SUNNY     54  28  37 W8        29.96F
MONTICELLO*    SUNNY     60  32  34 W14G23    29.96F
6HR MIN TEMP:  22; 6HR MAX TEMP:  60;

WILLIAMSBURG*  CLEAR     57  34  41 SE6       29.94F
MIDDLESBORO*   SUNNY     56  35  45 S8        29.97F
6HR MIN TEMP:  26; 6HR MAX TEMP:  56;

HARLAN APT*    CLEAR     55  32  41 CALM      29.95F
PIKE CO APT*     N/A     55  28  36 CALM      29.94F
BIG SANDY APT* CLEAR     56  29  36 SW7       29.94F
6HR MIN TEMP:  31; 6HR MAX TEMP:  56;

MOREHEAD APT*  CLEAR     55  19  24 SW12      29.95F
$$

KYZ035-036-041-042-044-050-067-078-099-241900
...CENTRAL KENTUCKY...

CITY           SKY/WX    TMP DP  RH WIND       PRES   REMARKS
MT STERLING*   SUNNY     54  28  37 SW8       29.95F
FLEMING/MASON* SUNNY     55  26  33 S8        29.93F
DANVILLE*      SUNNY     54  23  30 SW8       29.94F
LEXINGTON      SUNNY     56  24  29 SW9       29.93F
6HR MIN TEMP:  31; 6HR MAX TEMP:  56;

FRANKFORT      SUNNY     57  21  24 S14       29.91F
6HR MIN TEMP:  27; 6HR MAX TEMP:  57;

LOUISVILLE     PTSUNNY   56  24  29 S10       29.90F
6HR MIN TEMP:  32; 6HR MAX TEMP:  56;

LEBANON*         N/A     55  19  24 SW12      29.94F
GLASGOW*       SUNNY     58  25  28 SW10      29.95F
BOWLING GREEN  MOSUNNY   58  24  27 S13       29.94F
6HR MIN TEMP:  26; 6HR MAX TEMP:  58;

$$

KYZ091>093-OHZ055-061-077-WVZ005-015-034-035-042-241900
...SOUTHERN OHIO/WEST VIRGINIA...

CITY           SKY/WX    TMP DP  RH WIND       PRES   REMARKS
COVINGTON      MOSUNNY   53  25  33 S13       29.89F
COLUMBUS       MOSUNNY   50  28  42 SW10      29.89F
DAYTON         MOSUNNY   50  26  39 S15       29.86F
WILMINGTON     SUNNY     51  27  39 SW17      29.88F
HUNTINGTON     SUNNY     55  23  28 SW7       29.94F
CHARLESTON     SUNNY     57  21  24 CALM      29.93F
PINEVILLE*     SUNNY     57  24  27 MISG      29.99F
BECKLEY        SUNNY     55  15  20 W7        29.94F
BLUEFIELD      SUNNY     54  17  23 VRB6      29.95F
LOGAN CO APT*    N/A     55  23  28 CALM      29.93F
$$

VAZ002-007-008-TNZ017-027-036-066-071-241900
...SOUTHWEST VIRGINIA/EAST TENNESSEE...

CITY           SKY/WX    TMP DP  RH WIND       PRES   REMARKS
WISE*          SUNNY     55  28  35 S5        29.95F
JONESVILLE*      N/A     55  32  41 CALM      29.98F
ABINGDON*      SUNNY     56  31  37 NW5       29.96F
BRISTOL        SUNNY     55  37  50 SW5       29.97F
MORRISTOWN*    CLEAR     55  37  50 CALM      29.96F
SEVIERVILLE*   CLEAR     55  39  54 NW5       29.97F
KNOXVILLE      MOSUNNY   57  43  59 VRB7      29.96F
LAFOLLETTE*    CLEAR     55  37  50 CALM      30.00F
OAK RIDGE      SUNNY     56  38  50 W6        29.99F
CROSSVILLE     SUNNY     56  34  43 VRB6      29.97F
NASHVILLE      PTSUNNY   60  19  20 SW10      29.97F
$$

...KEY TO REMARKS...
VSB - VISIBILITY IN MILES
WCI - WIND CHILL INDEX
HX  - HEAT INDEX

$$



USA.gov is the U.S. government's official web portal to all federal, state and local government web resources and services.